Terminal Aerodrome Forecast
Issued by NWS

Home | Current Version | Previous Version | Graphics & Text | Print | Product List | Glossary On
Versions: 1 2 3 4 5 6 7 8 9 10 11 12 13 14
528
FTUS43 KMPX 250635 AAA
TAFRWF
TAF AMD
KRWF 250635Z 2507/2606 33009KT P6SM BKN008 OVC012
     FM251500 35009KT P6SM SCT008 OVC012
     FM251800 36008KT P6SM -SHRA OVC020
     FM252200 35009KT 1 1/2SM -SHRA BR OVC010
     FM260000 34012G22KT 1 1/2SM -RA BR OVC008=

USA.gov is the U.S. government's official web portal to all federal, state and local government web resources and services.